Location: Capvern
(43.1036°N, 0.3160°E)
Time: 11:09:23
(UTC+00:00)

Cosmos 489 Rocket - Pass Details

Date: 04 June 2022
Orbit: 952 x 983 km, 74.0° (Epoch: 01 July)

Event Time Altitude Azimuth Distance (km) Brightness Sun altitude
Rises 01:39:26 0° 343° (NNW) 3,649 8.2 -20.4°
Reaches altitude 10° 01:42:04 10° 349° (N) 2,703 7.6 -20.2°
Maximum altitude 01:48:06 49° 64° (ENE) 1,236 5.3 -19.7°
Drops below altitude 10° 01:54:09 10° 138° (SE) 2,708 6.6 -19.2°
Sets 01:56:47 0° 144° (SE) 3,656 7.3 -18.9°
